Regional Weather Roundup
Issued by NWS Cleveland, OH

Home | Current Version | Previous Version | Graphics & Text | Print | Product List | Glossary On
Versions: 1 2 3 4 5 6 7 8 9 10 11 12 13 14 15 16 17 18 19 20 21 22 23 24 25 26 27 28 29 30 31 32 33 34 35 36 37 38 39 40 41 42 43 44 45 46 47 48 49 50
000
ASUS41 KCLE 281210
RWRCLE
OHIO REGIONAL WEATHER ROUNDUP
NATIONAL WEATHER SERVICE CLEVELAND, OH
800 AM EDT FRI AUG 28 2015

NOTE: "FAIR" INDICATES FEW OR NO CLOUDS BELOW 12,000 FEET WITH NO
SIGNIFICANT WEATHER AND/OR OBSTRUCTIONS TO VISIBILITY.

OHZ001>008-015>018-024>027-034-035-043-044-281300-
   NORTHWEST OHIO

CITY           SKY/WX    TMP DP  RH WIND       PRES   REMARKS
DEFIANCE       SUNNY     54  52  93 CALM      30.19F FOG
FINDLAY        SUNNY     57  54  89 SE3       30.19S FOG
TOLEDO EXPRESS SUNNY     52  51  97 CALM      30.20R
TOLEDO EXEC    SUNNY     56  53  90 CALM      30.21R
LIMA           SUNNY     57  55  93 SE3       30.19S
$$

OHZ009>014-019>023-028>033-038-089-281300-
   NORTHEAST OHIO

CITY           SKY/WX    TMP DP  RH WIND       PRES   REMARKS
CLE-HOPKINS    MOSUNNY   56  53  90 CALM      30.23S
CLE-LAKEFRONT  SUNNY     60  54  80 SE7       30.20S
CUY CO. ARPT   MOSUNNY   57  55  94 CALM      30.23R
LORAIN-ELYRIA  SUNNY     54  53  97 S3        30.22S FOG
ASHTABULA      MOSUNNY   50  50 100 CALM      30.24R
AKRON-CANTON   MOSUNNY   57  53  86 E5        30.22R
WOOSTER        SUNNY     50  50 100 CALM      30.22S FOG
MANSFIELD      SUNNY     56  56 100 S3        30.22R
YOUNGSTOWN     PTSUNNY   54  52  93 CALM      30.23R FOG
$$

OHZ042-051>053-060>062-070>072-077>081-281300-
  SOUTHWEST OHIO

CITY           SKY/WX    TMP DP  RH WIND       PRES   REMARKS
CINC-COVINGTON PTCLDY    58  56  93 N5        30.19R
CINC-LUNKEN    SUNNY     54  54 100 NE5       30.21R FOG
HAMILTON       SUNNY     54  52  93 CALM      30.20R
DAYTON         MOSUNNY   57  56  96 E5        30.21R
WRIGHT-PAT AFB SUNNY     56  55  98 CALM      30.20R
DAYTON GENERAL SUNNY     56  53  90 NE7       30.20R
WILMINGTON     SUNNY     54  51  90 CALM      30.20R FOG
$$

OHZ036-037-039>041-045>050-054>059-063>069-073>076-082>088-281300-
  CENTRAL AND SOUTHEAST OHIO

CITY           SKY/WX    TMP DP  RH WIND       PRES   REMARKS
COLUMBUS       SUNNY     58  55  90 CALM      30.20R
OSU AIRPORT    SUNNY     55  54  96 CALM      30.21R
BOLTON FIELD   SUNNY     52  52 100 CALM      30.21R
RICKENBACK AFB SUNNY     55  54  95 NE3       30.20R
NEWARK         SUNNY     52  51  97 CALM      30.21R
MARION         SUNNY     56  53  90 S3        30.21R FOG
LANCASTER      FOG       53  51  93 CALM      30.21R VSB 3/4
ZANESVILLE     SUNNY     55  51  86 CALM      30.21R FOG
NEW PHILLY     SUNNY     54  53  97 CALM      30.23R
$$


USA.gov is the U.S. government's official web portal to all federal, state and local government web resources and services.